Weather History for McCall, ID

Change the Weather History Date:

Wednesday, February 6, 2013

  Actual Average Record
Temperature  
Mean Temperature 26 °F 21 °F  
Max Temperature 36 °F 31 °F 53 °F (1963)
Min Temperature 15 °F 10 °F -20 °F (1982)
Degree Days  
Heating Degree Days 39 44  
Month to date heating degree days 229 264  
Since 1 July heating degree days 5082 5738  
Cooling Degree Days 0 0  
Month to date cooling degree days 0 0  
Year to date cooling degree days 0 0  
Moisture  
Dew Point 18 °F    
Average Humidity 76    
Maximum Humidity 100    
Minimum Humidity 51    
Precipitation  
Precipitation T in 0.08 in 1.03 in (1940)
Month to date precipitation 0.02 0.46  
Year to date precipitation 2.92 2.19  
Sea Level Pressure  
Sea Level Pressure 30.10 in    
Wind  
Wind Speed 2 mph (SE)    
Max Wind Speed 7 mph    
Max Gust Speed 8 mph    
Visibility 9 miles    
Events      
T = Trace of Precipitation, MM = Missing Value Source: NWS Daily Summary

Daily Weather History Graph

Daily Weather History Graph

Search for Another Location

Airport:

Trip Planner

Search our weather history database for the weather conditions in past years. The results will help you decide how hot, cold, wet, or windy it might be!

Date:

Astronomy

Feb. 06, 2013 Rise Set
Actual Time 7:57 AM MST 6:00 PM MST
Civil Twilight 7:26 AM MST 6:31 PM MST
Nautical Twilight 6:51 AM MST 7:05 PM MST
Astronomical Twilight 6:17 AM MST 7:40 PM MST
Moon 4:50 AM MST (2/6) 2:18 PM MST (2/6)
Length of Visible Light 11h 04m
Length of Day
10h 02m
Waning Crescent, 16% of the Moon is Illuminated
Feb 6
Waning Crescent
Feb 10
New
Feb 17
First Quarter
Feb 25
Full
Mar 4
Last Quarter

Hourly Weather History & Observations

Time (MST) Temp. Windchill Dew Point Humidity Pressure Visibility Wind Dir Wind Speed Gust Speed Precip Events Conditions
12:51 AM 23.0 °F 18.4 °F 19.9 °F 88% 30.00 in 10.0 mi NE 3.5 mph - N/A   Partly Cloudy
1:51 AM 24.1 °F 18.2 °F 21.9 °F 91% 29.99 in 10.0 mi East 4.6 mph - N/A   Mostly Cloudy
2:51 AM 19.9 °F 13.4 °F 19.0 °F 96% 30.04 in 7.0 mi SE 4.6 mph - N/A   Mostly Cloudy
2:59 AM 21.2 °F 16.4 °F 17.6 °F 86% 29.96 in 7.0 mi East 3.5 mph - N/A   Scattered Clouds
3:51 AM 18.0 °F - 16.0 °F 92% 30.04 in 6.0 mi Calm Calm - N/A   Clear
4:06 AM 19.4 °F - 17.6 °F 93% 29.95 in 2.0 mi Calm Calm - N/A   Clear
4:16 AM 17.6 °F - 15.8 °F 93% 29.95 in 5.0 mi Calm Calm - N/A   Partly Cloudy
4:51 AM 17.1 °F - 14.0 °F 88% 30.06 in 8.0 mi Calm Calm - N/A   Clear
5:51 AM 15.1 °F - 12.0 °F 88% 30.09 in 10.0 mi Calm Calm - N/A   Mostly Cloudy
6:51 AM 17.1 °F - 14.0 °F 88% 30.11 in 10.0 mi Calm Calm - N/A   Overcast
7:51 AM 19.0 °F - 16.0 °F 88% 30.10 in 8.0 mi Calm Calm - 0.00 in   Overcast
8:51 AM 21.0 °F - 19.0 °F 92% 30.13 in 9.0 mi Calm Calm - N/A   Overcast
9:23 AM 24.8 °F - 21.2 °F 86% 30.03 in 8.0 mi Calm Calm - N/A   Overcast
9:51 AM 24.1 °F - 21.9 °F 91% 30.13 in 9.0 mi Calm Calm - N/A   Scattered Clouds
10:51 AM 26.1 °F - 24.1 °F 92% 30.14 in 9.0 mi Calm Calm - N/A   Partly Cloudy
11:51 AM 30.0 °F 23.2 °F 25.0 °F 82% 30.14 in 10.0 mi SSE 6.9 mph - N/A   Clear
12:51 PM 32.0 °F 28.7 °F 23.0 °F 69% 30.13 in 10.0 mi South 3.5 mph - N/A   Partly Cloudy
1:51 PM 33.1 °F - 21.0 °F 61% 30.12 in 10.0 mi Calm Calm - N/A   Mostly Cloudy
2:51 PM 33.1 °F 27.7 °F 19.0 °F 56% 30.13 in 10.0 mi SSE 5.8 mph - N/A   Scattered Clouds
3:51 PM 34.0 °F - 18.0 °F 52% 30.14 in 10.0 mi Calm Calm - N/A   Partly Cloudy
4:51 PM 30.0 °F 25.2 °F 17.1 °F 59% 30.15 in 10.0 mi South 4.6 mph - N/A   Partly Cloudy
5:51 PM 27.0 °F 21.6 °F 16.0 °F 63% 30.18 in 10.0 mi SSE 4.6 mph - N/A   Clear
6:51 PM 25.0 °F - 17.1 °F 72% 30.19 in 10.0 mi Calm Calm - N/A   Clear
7:51 PM 23.0 °F 18.4 °F 16.0 °F 74% 30.18 in 10.0 mi ENE 3.5 mph - N/A   Clear
8:51 PM 19.9 °F - 16.0 °F 85% 30.17 in 10.0 mi Calm Calm - N/A   Clear
9:51 PM 19.0 °F - 15.1 °F 85% 30.17 in 10.0 mi Calm Calm - N/A   Clear
10:51 PM 17.1 °F - 14.0 °F 88% 30.15 in 8.0 mi Calm Calm - N/A   Partly Cloudy
11:51 PM 19.9 °F - 16.0 °F 85% 30.13 in 7.0 mi Calm Calm - N/A   Clear